Regional Weather Roundup
Issued by NWS Upton, NY

Current Version | Previous Version | Text Only | Print | Product List | Glossary Off
Versions: 1 2 3 4 5 6 7 8 9 10 11 12 13 14 15 16 17 18 19 20 21 22 23 24 25 26 27 28 29 30 31 32 33 34 35 36 37 38 39 40 41 42 43 44 45 46 47 48 49 50
452 ASUS41 KOKX 210708 RWROKX REGIONAL WEATHER ROUNDUP NATIONAL WEATHER SERVICE NEW YORK NY 200 AM EST TUE NOV 21 2017 NOTE: "FAIR" INDICATES FEW OR NO CLOUDS BELOW 12,000 FEET WITH NO SIGNIFICANT WEATHER AND/OR OBSTRUCTIONS TO VISIBILITY. NYZ071-072-176-178-NJZ106-104-210800- NEW YORK CITY METRO AREA CITY SKY/WX TMP DP RH WIND PRES REMARKS Central Park CLEAR 43 25 49 VRB6 30.15R Bronx Bot Gard N/A 43 25 49 S17 30.12R LaGuardia APRT PTCLDY 44 27 51 SW14 30.12S Kennedy INTL PTCLDY 42 31 64 W12 30.14S Breezy Point N/A 43 N/A N/A SW15G25 N/A Newark/Liberty PTCLDY 38 26 62 SW8 30.14R WCI 32 Teterboro CLEAR 37 24 59 S6 30.12S WCI 32 $$ NYZ177-179-078>081-210800- LONG ISLAND NEW YORK CITY SKY/WX TMP DP RH WIND PRES REMARKS Jones Beach N/A 46 N/A N/A W17G26 N/A Matinecock PT N/A 45 N/A N/A SW15 N/A Farmingdale CLEAR 41 28 60 SW8 30.14S MacArthur/ISP CLEAR 40 28 62 SW6 30.13S Shirley CLEAR 40 30 67 S3 30.15R Mt Sinai Harb N/A N/A N/A N/A S3 N/A Westhampton CLEAR 40 29 64 SW5 30.15S East Hampton FAIR 41 28 60 W7 30.14R Southold NOT AVBL Montauk N/A 46 29 51 SW12G20 30.15R $$ NYZ052-065-067-210800- HUDSON VALLEY CITY SKY/WX TMP DP RH WIND PRES REMARKS White Plains CLEAR 39 22 50 W3 30.10S Larchmont Harb N/A 45 N/A N/A SW13 N/A Croton On Huds N/A 41 N/A N/A SE5 N/A Newburgh CLEAR 36 25 64 CALM 30.09R Montgomery CLEAR 27 24 89 CALM 30.07S Poughkeepsie CLEAR 31 23 72 E3 30.09R Albany CLEAR 34 25 69 S7 30.04R WCI 28 $$ NJZ001-105-106-008-010-013-015-019>022-104-210800- NEW JERSEY CITY SKY/WX TMP DP RH WIND PRES REMARKS Newark/Liberty PTCLDY 38 26 62 SW8 30.14R WCI 32 Teterboro CLEAR 37 24 59 S6 30.12S WCI 32 Caldwell CLEAR 37 23 56 VRB5 30.13R WCI 33 Somerville CLOUDY 29 25 85 CALM 30.13R Linden FAIR 39 26 59 CALM 30.15R Perth Amboy N/A 39 N/A N/A W6 N/A WCI 35 Sussex CLEAR 31 24 75 SW5 30.09S WCI 26 Andover N/A 31 24 75 S3 30.10S Trenton PTCLDY 35 26 69 CALM 30.14S Millville PTCLDY 45 34 65 VRB3 30.19R Atlantic City CLOUDY 38 33 82 S6 30.19R WCI 33 Wrightstown CLOUDY 36 28 74 SW7 30.14S WCI 30 Toms River CLOUDY 37 30 75 SW9 30.18R WCI 30 Belmar CLOUDY 39 27 62 SW7 30.16S WCI 34 $$ PAZ047>061-062-071-210800- EASTERN PENNSYLVANIA CITY SKY/WX TMP DP RH WIND PRES REMARKS Philadelphia CLOUDY 42 30 62 S7 30.17S Allentown CLOUDY 30 23 75 CALM 30.12S Scranton CLEAR 36 23 59 CALM 30.05F $$ CTZ002-004>006-009-010-012-RIZ004-006-007-MAZ004-011-015-210800- SOUTHERN NEW ENGLAND IN CT CITY SKY/WX TMP DP RH WIND PRES REMARKS Bradley INTL CLEAR 34 25 69 S9 30.09R WCI 27 Hartford CLEAR 37 25 61 S7 30.10R WCI 32 Danbury CLEAR 38 23 55 SW7 30.11R WCI 33 Wtrbury/Oxford CLEAR 35 23 61 SW5 30.10R WCI 31 Norwalk Harbor N/A 45 N/A N/A SW17 N/A Bridgeport CLEAR 42 28 57 W5 30.12R Meriden CLEAR 28 25 88 S3 30.12R New Haven CLEAR 42 26 53 NW3 30.12R Chester FAIR 41 25 52 VRB6G14 30.11R Groton CLEAR 41 29 62 W5 30.12S Wilimantic CLEAR 32 25 75 CALM 30.11R IN RI CITY SKY/WX TMP DP RH WIND PRES REMARKS Providence CLEAR 38 26 62 SW8 30.12R WCI 32 Block Island CLEAR 45 28 51 SW18 30.15R Westerly CLEAR 46 33 60 SW7 30.13S IN MA CITY SKY/WX TMP DP RH WIND PRES REMARKS Boston CLEAR 39 27 62 SW12 30.09R WCI 32 Worcester CLEAR 33 23 66 SW8 30.05R WCI 26 Westfield CLEAR 32 25 75 S7 30.07R WCI 26 Provincetown CLEAR 43 30 60 W18G28 30.12R Nantucket PTCLDY 46 33 60 W13 30.14R $$ ANZ330-335-338-340-345-350-353-355-210800- COASTAL MARINE OBSERVATIONS STATION/POSITION TIME SKY/WX TEMP WIND PRES VSBY WAVE AIR SEA DIR/SP/G HT/PER (UTC) (F) (DEG/KT/KT) (MB) (MI) (FT/S) NY HARB ENTRANCE 0550 49 58 240/ 23/ 27 1019.5 4/ 5 20 S FIRE ISLAND 0550 52 57 250/ 21/ 27 1020.7 6/ 6 GREAT SOUTH BAY 0630 46 46 260/ 12/ 14 N/A HUDSON CANYON 0550 53 59 260/ 17/ 21 1021.7 5/ 6 KINGS POINT 0642 45 51 280/ 12/ 16 1020.8 EXECUTION ROCKS 0645 47 210/ 12/ 17 N/A WESTERN LI SOUND 0549 46 230/ 16/ 19 N/A 1/ 3 CENTRAL LI SOUND 0615 47 230/ 17/ 21 N/A 4 ROBBINS REEF 0642 42 250/ 17/ 21 1020.6 $$ >>>>>>>>>>>>>>>>>>>>>>>>>>>> KEY <<<<<<<<<<<<<<<<<<<<<<<<<<< > < > SKY/WX - Sky Condition/Present Weather < > TMP - Temperature in Fahrenheit < > DP - Dew Point in Fahrenheit < > RH - Relative Humidity in Percent < > WIND - Direction (from) and Speed in MPH < > PRES - Mean Sea Level Pressure (inches of Hg) < > WCI - Wind Chill Index < > VSB - VISIBILITY IN MILES < > HX - HEAT INDEX < > TC - TEMPERATURE IN CELSIUS < > VRB - VARIABLE WIND DIRECTION < > < >>>>>>>>>>>>>>>>>>>>>>>>>>>> KEY <<<<<<<<<<<<<<<<<<<<<<<<<<<

USA.gov is the U.S. government's official web portal to all federal, state and local government web resources and services.